SCP
0 0 0 0 0 0 0 0 0 0 0 0 0 0 0 0 0 0 0 0 1 1 1 1 2 2 2 2 3 3 2 2 2 2 1 1 1 1 1 2 2 2 1 1 2 1 1 1 1
0 0 0 0 0 0 0 0 0 0 0 0 0 0 0 0 0 0 0 1 1 1 1 1 2 2 2 3 3 3 2 2 2 2 1 1 1 1 1 2 2 2 1 2 2 2 1 1 1
0 0 0 0 0 0 0 0 0 0 0 0 0 0 0 0 0 0 1 1 1 1 1 1 1 2 2 3 3 3 3 2 2 2 2 1 1 2 2 2 2 2 2 2 2 2 1 1 1
0 0 0 0 0 0 0 0 0 0 0 0 0 0 0 0 0 0 1 1 1 1 1 1 1 2 2 3 3 3 3 2 2 2 2 1 1 2 2 2 2 2 2 2 2 2 1 1 1
0 0 0 0 0 0 0 0 0 0 0 0 0 0 0 0 0 1 1 1 1 1 1 1 1 2 2 3 3 3 3 3 2 2 2 2 1 1 2 2 2 2 2 2 2 2 2 1 1
0 0 0 0 0 0 0 0 0 0 0 0 0 0 0 0 0 1 1 1 1 1 1 1 1 2 2 3 4 4 4 3 3 2 2 2 1 1 1 2 2 2 2 2 2 2 2 1 1
0 0 0 0 0 0 0 0 0 0 0 0 0 0 0 0 0 1 1 1 1 1 2 2 2 2 3 3 4 4 4 3 3 2 2 2 2 1 1 1 2 2 2 2 2 2 2 2 1
0 0 0 0 0 0 0 0 0 0 0 0 0 0 0 0 0 1 2 2 2 1 1 2 2 2 3 3 3 3 3 3 2 2 2 2 2 1 1 1 2 2 2 2 2 2 2 2 2
0 0 0 0 0 0 0 0 0 0 0 0 0 0 0 0 0 1 2 3 2 2 1 1 2 2 2 2 3 3 3 3 2 2 2 1 1 1 1 1 1 2 2 2 2 2 2 2 2
0 0 0 0 0 0 0 0 0 0 0 0 0 0 0 0 0 1 2 2 2 2 2 1 1 1 2 2 2 3 3 2 2 2 1 1 1 1 1 1 1 1 1 2 2 2 2 2 2
0 0 0 0 0 0 0 0 0 0 0 0 0 0 0 0 0 0 1 1 2 2 2 2 1 1 1 1 2 2 2 2 2 1 1 1 1 2 1 1 1 1 1 1 1 2 2 2 2
0 0 0 0 0 0 0 0 0 0 0 0 0 0 0 0 0 0 0 0 1 1 2 2 2 1 1 1 1 2 2 2 2 1 1 1 1 2 2 2 1 1 1 1 1 1 2 2 2
0 0 0 0 0 0 0 0 0 0 0 0 0 0 0 0 0 0 0 0 0 1 2 3 2 1 1 1 1 1 2 2 2 2 1 1 1 1 2 2 2 1 1 1 1 1 2 2 2
0 0 0 0 0 0 0 0 0 0 0 0 0 0 0 0 0 0 0 0 0 0 1 2 2 1 1 1 1 1 1 2 2 2 2 1 1 1 1 1 1 1 2 2 1 1 2 2 2
0 0 0 0 0 0 0 0 0 0 0 0 0 0 0 0 0 0 0 0 0 0 1 1 2 2 1 0 0 1 1 2 2 2 2 1 1 1 1 1 1 1 2 2 2 2 2 2 2
0 0 0 0 0 0 0 0 0 0 0 0 0 0 0 0 0 0 0 0 0 0 1 1 1 2 1 0 0 0 1 1 2 2 2 1 1 1 1 1 1 1 1 2 2 2 2 2 2
0 0 0 0 0 0 0 0 0 0 0 0 0 0 0 0 0 0 0 0 0 0 1 1 1 1 1 1 0 0 1 1 1 2 2 1 1 1 1 1 1 1 1 1 2 2 2 2 2
0 0 0 0 0 0 0 0 0 0 0 0 0 0 0 0 0 0 0 0 0 0 1 1 1 1 1 1 1 0 1 1 1 1 1 1 1 1 1 1 0 0 1 1 2 2 2 2 2
0 0 0 0 0 0 0 0 0 0 0 0 0 0 0 0 0 0 0 0 0 0 1 1 1 1 1 1 1 1 1 1 1 1 1 1 1 1 1 0 0 0 0 1 1 2 2 2 2
0 0 0 0 0 0 0 0 0 0 0 0 0 0 0 0 0 0 0 0 0 0 1 1 1 1 1 1 1 1 0 1 1 1 1 0 1 1 1 0 0 0 0 0 1 1 2 2 3
0 0 0 0 0 0 0 0 0 0 0 0 0 0 0 0 0 0 0 0 0 0 0 0 1 1 1 1 1 0 0 0 0 1 0 0 0 1 1 1 0 0 0 0 1 1 1 2 3
0 0 0 0 0 0 0 0 0 0 0 0 0 0 0 0 0 0 0 0 0 0 0 0 0 0 1 1 1 0 0 0 0 0 0 0 0 1 1 1 0 0 0 0 1 1 1 2 2
0 0 0 0 0 0 0 0 0 0 0 0 0 0 0 0 0 0 0 0 0 0 0 0 0 0 1 1 0 0 0 0 0 0 0 0 0 1 1 1 0 0 0 0 0 1 1 1 2
0 0 0 0 0 0 0 0 0 0 0 0 0 0 0 0 0 0 0 0 0 0 0 0 0 0 1 1 0 0 0 0 0 0 0 0 0 0 1 1 0 0 0 0 0 1 1 1 1
0 0 0 0 0 0 0 0 0 0 0 0 0 0 0 0 0 0 0 0 0 0 0 0 0 0 1 0 0 0 0 0 0 0 0 0 0 0 1 0 0 0 0 0 1 1 1 1 1
0 0 0 0 0 0 0 0 0 0 0 0 0 0 0 0 0 0 0 0 0 0 0 0 0 0 0 0 0 0 0 0 0 0 0 0 0 0 0 0 0 0 0 0 1 1 1 1 1
0 0 0 0 0 0 0 0 0 0 0 0 0 0 0 0 0 0 0 0 0 0 0 0 0 0 0 0 0 0 0 0 0 0 0 0 0 0 0 0 0 0 0 0 1 1 1 0 1
0 0 0 0 0 0 0 0 0 0 0 0 0 0 0 0 0 0 0 0 0 0 0 0 0 0 0 0 0 0 0 0 0 0 0 0 0 0 0 0 0 0 0 1 1 1 0 0 1
0 0 0 0 0 0 0 0 0 0 0 0 0 0 0 0 0 0 0 0 0 0 0 0 0 0 0 0 0 0 0 0 0 0 0 0 0 0 0 0 0 0 0 0 1 1 0 0 0
0 0 0 0 0 0 0 0 0 0 0 0 0 0 0 0 0 0 0 0 0 0 0 0 0 0 0 0 0 0 0 0 0 0 0 1 0 0 0 0 0 0 0 0 1 1 0 0 0
Wind_Speed
6 4 2 3 5 3 3 5 3 2 0 1 1 5 6 4 3 5 3 1 4 6 5 6 7 7 7 6 7 8 8 8 8 8 8 8 8 8 8 9 9 9 9 10 11 11 11 11 11
3 2 4 4 4 2 4 5 3 3 2 1 2 4 5 4 2 5 1 1 6 6 4 5 6 6 6 6 6 7 7 7 7 8 8 8 8 8 8 8 8 8 8 9 10 10 10 10 11
2 1 3 4 3 5 5 3 4 2 1 1 2 3 4 4 3 3 2 3 6 5 4 5 6 6 6 6 6 7 7 7 7 7 7 7 7 8 8 8 8 8 8 8 9 10 10 10 10
2 3 3 2 4 5 5 3 1 0 2 3 3 4 3 1 3 3 3 5 6 4 3 4 6 6 5 5 5 6 6 6 6 6 7 6 6 7 7 8 8 7 8 8 9 9 10 10 10
3 4 2 1 5 5 5 5 2 0 0 1 3 3 2 3 2 4 5 6 6 3 2 3 5 5 4 4 4 5 5 6 6 6 6 6 6 6 6 7 7 8 8 8 9 9 10 10 10
3 3 3 4 5 4 3 3 1 0 0 1 3 3 1 2 2 3 4 4 5 4 3 2 4 4 4 3 3 4 5 5 5 5 5 6 6 6 6 6 6 7 8 8 8 10 10 10 9
3 3 4 4 3 3 2 2 1 1 1 1 2 4 1 2 0 2 3 4 4 4 3 1 1 2 2 3 2 2 3 4 5 5 5 5 5 6 6 5 6 6 7 7 8 9 9 10 9
4 3 2 3 3 3 2 2 1 0 1 1 2 5 4 4 1 3 4 4 3 3 2 1 0 0 1 2 1 1 2 3 3 4 4 4 4 5 5 5 5 5 6 7 7 8 9 9 9
3 2 4 4 4 2 2 2 3 2 0 2 1 3 4 2 1 4 4 3 2 2 1 1 1 0 1 1 1 2 2 2 3 3 3 3 2 3 3 3 4 5 6 6 7 7 8 8 7
3 4 6 3 2 1 1 1 3 3 3 2 2 1 1 1 2 3 1 0 0 1 1 1 1 1 1 1 1 1 1 2 2 1 2 2 2 2 2 3 4 4 4 5 6 6 7 5 3
4 6 4 3 1 1 1 2 1 1 4 5 4 3 1 0 1 1 1 2 2 2 2 1 2 1 1 1 1 1 1 1 1 2 2 2 1 1 1 2 2 2 3 2 3 3 2 3 3
3 4 4 3 2 1 2 2 3 5 8 5 5 4 3 3 3 3 3 3 2 2 2 2 2 1 2 1 1 1 1 1 1 2 2 2 1 1 1 2 2 2 1 1 1 1 2 3 4
4 4 3 3 3 4 4 5 5 8 8 5 5 4 5 5 5 4 4 3 2 2 2 2 2 2 2 1 1 1 1 2 2 2 2 3 2 2 2 2 2 2 2 2 2 2 3 3 4
3 3 5 5 5 4 5 6 5 10 6 5 5 6 6 6 6 4 3 3 3 3 2 2 2 2 2 2 2 2 2 2 2 2 2 3 3 3 3 2 2 2 2 2 3 3 3 3 3
1 3 6 5 5 4 2 8 10 10 4 5 7 7 7 7 5 6 6 5 4 4 2 2 2 1 2 2 2 2 2 2 2 2 3 3 3 3 3 3 3 3 3 3 2 3 2 2 3
0 1 5 5 4 4 4 11 8 5 5 7 7 7 7 7 6 6 5 4 4 3 2 2 1 1 2 2 2 2 2 2 2 2 3 4 4 4 4 3 3 3 3 2 2 2 2 3 3
1 3 5 5 4 4 6 10 7 4 5 7 7 7 7 6 6 5 5 4 3 3 2 1 1 2 2 2 2 2 2 2 2 2 2 3 4 4 3 3 3 4 3 3 3 2 3 3 3
6 5 5 6 3 3 7 12 11 6 7 8 8 7 6 7 7 5 4 3 3 3 2 2 2 2 2 1 1 1 2 2 2 2 3 3 3 4 3 3 4 4 3 3 3 3 3 3 3
4 4 6 6 4 4 9 13 14 9 8 9 8 7 7 7 6 4 3 3 2 1 1 1 2 2 1 1 1 1 2 2 2 2 3 4 4 4 4 3 4 4 4 5 5 3 3 3 1
6 6 7 6 3 4 7 13 12 9 9 9 9 8 8 5 3 3 2 2 2 2 1 2 2 3 3 2 2 2 2 2 3 3 3 4 4 5 4 4 4 4 4 4 5 4 3 3 2
8 9 7 6 5 4 5 10 7 6 5 5 6 7 7 7 6 4 2 2 2 2 2 2 3 3 3 3 1 1 1 1 2 2 3 4 4 5 5 5 5 4 5 5 5 6 5 4 3
8 7 7 5 3 5 1 7 8 5 5 5 5 5 6 6 4 4 3 2 3 3 2 2 3 3 3 3 3 3 3 3 4 3 3 4 4 5 5 5 5 5 4 5 6 6 5 5 4
7 3 3 4 3 4 3 5 10 4 5 7 6 6 5 5 5 4 3 3 3 2 2 2 3 3 3 3 4 4 4 4 3 3 4 4 4 5 5 5 5 5 5 6 6 6 6 5 6
4 2 2 2 2 6 7 7 9 5 7 5 5 5 5 5 4 3 2 1 1 1 2 2 3 4 3 3 4 5 5 5 4 4 4 4 3 4 5 5 5 6 5 6 6 6 7 6 6
4 4 1 2 2 8 4 6 11 7 6 6 6 6 5 5 4 3 2 1 1 2 3 2 2 4 4 4 5 5 5 5 6 5 5 4 3 4 5 5 6 6 6 6 6 6 6 7 7
8 8 7 6 6 5 3 8 9 6 4 3 4 6 5 4 3 3 3 2 2 2 2 2 2 4 4 4 4 4 5 4 4 5 5 5 4 5 6 6 6 7 7 7 6 6 6 6 7
7 7 5 4 1 3 6 6 8 2 0 2 3 4 4 4 4 3 2 2 2 2 2 2 3 3 4 4 4 4 4 4 4 5 5 4 5 5 6 6 7 7 7 7 7 6 7 7 7
6 7 4 5 4 5 5 5 6 4 4 3 3 4 3 3 3 3 2 2 2 2 2 2 2 3 4 4 4 4 4 4 5 5 5 5 6 5 5 6 7 7 7 8 7 6 7 8 7
6 6 5 4 4 5 5 7 6 7 7 6 6 5 5 4 3 2 2 2 2 2 2 2 3 4 4 4 4 4 4 5 5 5 6 6 5 6 6 6 7 7 7 8 8 8 8 8 8
6 7 8 6 6 5 4 8 5 4 4 5 4 3 3 3 3 2 2 2 2 2 3 3 3 4 4 5 4 5 5 5 5 5 5 5 5 5 6 6 7 7 7 7 8 8 8 8 9
Wind_Direction
346 350 62 57 62 59 242 247 233 280 291 253 111 107 111 100 117 150 220 224 134 142 155 148 147 145 144 143 139 140 139 139 141 141 142 143 146 147 149 150 151 150 151 150 147 145 143 140 136
356 3 58 63 97 155 251 243 226 236 219 191 63 89 87 84 100 120 133 135 128 136 144 147 146 146 144 145 144 146 145 145 148 149 148 151 155 156 158 162 161 158 156 155 153 153 151 148 143
342 65 87 90 151 193 217 223 200 221 263 104 60 61 96 125 131 143 185 137 121 125 140 147 141 143 145 145 149 152 150 151 154 156 157 159 163 164 166 167 164 161 160 160 159 160 159 153 151
55 59 65 101 225 233 219 233 250 338 16 40 86 60 48 28 152 162 133 114 116 121 135 151 137 136 143 147 153 155 156 159 160 161 162 167 171 170 170 168 166 164 163 165 166 166 165 160 158
67 85 97 226 239 249 247 260 251 200 99 16 83 89 48 343 79 112 112 111 117 118 126 141 134 134 135 144 154 157 159 160 163 165 166 172 174 170 170 175 176 174 173 175 175 175 172 170 166
66 84 130 220 240 256 273 280 265 127 95 26 85 105 189 307 56 88 104 108 121 131 129 133 126 127 131 135 148 161 165 167 167 168 171 173 174 174 171 176 180 181 181 182 179 180 178 176 173
116 128 186 212 234 257 271 313 107 131 55 272 136 123 209 294 313 80 83 90 96 111 112 113 143 143 143 139 137 159 174 177 174 172 173 172 176 180 179 179 183 186 185 186 186 186 185 184 180
140 126 213 225 219 240 302 4 47 75 236 274 116 141 198 237 271 58 57 65 72 84 105 117 115 158 190 195 165 159 171 183 181 178 168 167 176 181 181 182 186 190 191 193 192 193 190 189 186
105 107 217 223 204 229 345 16 335 315 45 350 52 171 198 198 63 53 39 29 41 48 62 117 117 288 247 209 206 201 183 187 189 189 177 170 182 183 184 188 187 193 194 196 200 196 193 189 188
117 189 223 226 195 207 344 1 318 347 338 313 339 338 95 91 81 82 81 269 238 245 248 180 168 194 212 228 210 208 199 199 190 185 184 184 177 175 172 185 187 193 199 203 206 204 196 183 184
171 205 225 253 246 199 312 308 292 218 256 227 218 226 238 353 19 159 202 216 230 227 228 221 196 193 185 214 206 202 214 206 195 187 181 176 171 174 174 171 187 198 197 202 210 204 197 186 185
202 237 224 242 258 257 253 267 272 224 232 230 216 213 233 235 235 227 218 225 237 246 242 226 205 197 202 194 204 195 194 195 196 205 184 171 177 184 189 183 184 184 189 194 200 209 204 200 202
229 257 260 253 261 248 248 244 250 252 247 247 248 248 242 240 237 231 213 212 208 228 249 235 213 203 206 193 210 195 199 198 202 197 192 178 180 192 196 195 192 195 191 193 202 212 220 214 213
223 252 277 265 256 245 243 261 243 255 239 238 241 243 244 237 229 225 220 215 208 213 235 236 223 214 198 199 205 209 210 205 210 205 202 190 185 187 191 196 195 199 200 201 204 211 216 219 212
263 304 301 260 226 231 227 272 236 246 236 241 244 244 245 242 230 220 221 215 208 212 216 223 210 200 192 211 220 221 218 206 206 218 206 199 193 189 190 196 199 204 203 204 209 216 214 224 218
13 286 279 269 201 199 178 261 256 237 219 238 242 244 243 246 235 229 223 217 208 200 203 235 230 201 211 216 226 226 215 204 207 214 210 206 201 194 192 198 205 205 196 197 205 210 220 229 226
230 234 246 275 214 187 199 252 265 244 221 240 245 242 239 244 248 236 216 201 191 187 187 220 251 224 225 220 220 227 217 210 211 206 210 212 204 198 196 206 210 199 195 201 212 213 213 229 240
206 217 240 249 240 201 236 257 270 267 240 244 247 244 236 229 235 227 204 191 184 184 184 201 250 241 233 236 233 249 242 231 218 214 216 216 211 202 199 215 216 200 197 204 210 214 220 220 229
196 211 246 256 259 248 249 263 270 265 250 248 245 238 225 229 233 216 195 177 161 170 180 213 236 247 226 222 232 234 242 240 233 229 225 218 217 209 201 216 219 207 203 204 206 204 216 225 212
233 249 258 275 275 260 270 272 269 258 242 232 228 222 217 223 225 213 191 174 176 190 213 234 234 232 225 217 215 219 227 238 234 236 231 223 218 215 214 206 215 219 212 208 204 196 202 216 193
232 229 236 253 305 302 302 293 276 268 249 243 228 213 205 199 201 202 185 182 181 205 228 242 249 241 235 224 208 239 259 289 263 253 242 232 223 220 220 213 211 220 215 214 211 201 200 217 220
238 230 224 239 273 281 259 288 281 267 280 256 240 219 206 200 188 182 182 194 205 225 232 244 256 247 234 215 203 214 226 240 245 243 245 246 230 226 224 219 215 219 223 222 217 212 205 203 222
214 213 216 226 217 275 246 245 278 277 258 252 237 222 205 188 175 179 192 202 217 225 226 244 259 258 241 224 215 218 235 238 249 248 247 248 243 232 228 225 223 221 224 227 221 213 209 208 214
170 87 36 40 120 255 220 204 272 237 225 235 225 212 197 181 178 186 206 199 234 262 249 254 258 266 261 245 231 222 233 239 244 247 244 247 248 240 233 229 229 228 226 228 226 219 215 217 220
154 125 13 298 252 246 208 209 252 246 237 214 203 197 189 177 174 180 183 214 247 262 262 260 259 276 277 263 246 237 236 234 233 238 238 242 245 244 238 233 230 230 232 231 225 222 222 220 218
191 171 180 205 223 262 236 228 253 260 255 210 180 168 165 170 177 188 198 211 238 257 273 270 269 282 285 272 263 254 245 236 237 236 236 237 240 243 243 236 233 233 233 238 227 225 226 227 223
172 199 179 148 199 257 256 273 294 276 5 134 141 145 169 177 183 192 204 213 235 254 270 266 268 287 291 286 272 260 249 243 244 242 239 242 243 245 246 243 240 236 234 234 227 230 228 226 228
176 158 142 169 189 239 264 251 238 229 214 191 180 186 193 188 192 197 206 219 234 246 272 290 283 283 289 292 284 271 258 249 245 241 240 240 243 242 246 249 245 239 236 235 229 232 232 228 230
170 177 173 169 183 188 238 258 227 208 199 190 199 195 191 197 202 211 228 238 252 281 294 302 306 303 299 291 286 276 262 255 252 247 245 241 240 241 242 246 244 243 241 239 234 234 231 231 233
193 188 168 180 216 200 205 264 274 213 198 182 189 197 202 204 202 211 230 255 279 289 297 295 298 301 293 286 281 273 270 262 255 254 247 240 241 243 244 248 246 246 247 242 238 239 235 232 234